[[{"header":{"parameterUnit":"m.s-1","parameterCategory":1,"la1":30.2991,"la2":30.254,"lo1":-89.0895,"lo2":-89.0444,"dy":0.0017,"dx":0.0017,"nx":28,"ny":28,"refTime":"2024-08-04T09:00:00:Z","depth":0,"parameterNumber":2,"parameterNumberName":"U-component_of_WINDS"},"data":[0,0,0,0,0,0,0,0,0,0,0,0,0,0,0,0,0,0,0,0,0,0,0,0,0,0,0,0,0,0,0,0,0,0,0,0,0,0,0,0,0,0,0,0,0,0,0,0,0,0,0,0,0,0,0,0,0,0,-0.2812,-0.2812,0,-0.2771,-0.277,-0.277,-0.2727,-0.2727,-0.2726,-0.2725,-0.2687,-0.2686,-0.2686,0,0,0,0,0,0,0,0,0,0,0,0,0,-0.2856,-0.2855,-0.2812,-0.2812,-0.2811,-0.2771,-0.277,-0.277,-0.2727,-0.2727,-0.2726,-0.2725,-0.2687,-0.2686,-0.2686,0,0,0,0,0,0,0,0,0,0,0,0,0,-0.2828,-0.2855,-0.2812,-0.2785,-0.2782,-0.2771,-0.277,-0.277,-0.2727,-0.2727,-0.2726,-0.2725,-0.2687,-0.2687,-0.2686,-0.2699,0,0,-0.2684,-0.2683,0,0,0,0,0,0,0,0,-0.283,-0.2826,-0.279,-0.2787,-0.2784,-0.2753,-0.2771,-0.2746,-0.2728,-0.2748,-0.2725,-0.2724,-0.271,-0.2707,-0.2702,-0.2698,-0.2696,-0.2684,-0.2683,-0.2683,-0.2683,0,0,0,0,0,0,0,-0.2832,-0.2828,-0.2796,-0.2789,-0.2786,-0.2775,-0.277,-0.2767,-0.2735,-0.2747,-0.2743,-0.2739,-0.2708,-0.2702,-0.27,-0.2695,-0.2684,-0.2683,-0.2683,-0.2682,-0.2699,-0.2699,0,0,0,0,0,0,-0.2837,-0.283,-0.2797,-0.2795,-0.2805,-0.2775,-0.277,-0.2764,-0.2735,-0.2729,-0.274,-0.2737,-0.2704,-0.2701,-0.2699,-0.2712,-0.2683,-0.2682,-0.2682,-0.2698,-0.2699,-0.27,0,0,0,0,0,0,-0.2838,-0.2835,-0.2799,-0.2811,-0.2806,-0.2775,-0.2769,-0.2764,-0.2758,-0.2729,-0.2724,-0.2739,-0.2703,-0.27,-0.2699,-0.271,-0.2682,-0.2681,-0.2697,-0.2698,-0.2699,-0.2739,0,0,0,0,0,0,-0.284,-0.2835,-0.284,-0.2812,-0.2805,-0.28,-0.277,-0.2763,-0.2756,-0.2752,-0.2728,-0.2723,-0.2702,-0.27,-0.2698,-0.2709,-0.2681,-0.2696,-0.2697,-0.2699,-0.2737,-0.2742,-0.2746,0,0,0,0,0,-0.2842,-0.2855,-0.2841,-0.2837,-0.2811,-0.28,-0.2797,-0.2772,-0.2757,-0.2762,-0.2743,-0.2724,-0.2709,-0.27,-0.2698,-0.2708,-0.2695,-0.2697,-0.2699,-0.2735,-0.2741,-0.2746,0,0,0,0,0,0,-0.2888,-0.2851,-0.2835,-0.2839,-0.2823,-0.2793,-0.2799,-0.2779,-0.2768,-0.2765,-0.2735,-0.273,-0.2732,-0.272,-0.2711,-0.2719,-0.2699,-0.27,-0.2727,-0.2733,-0.2737,-0.2741,-0.268,0,0,0,0,0,-0.2898,-0.2891,-0.286,-0.2866,-0.2859,-0.283,-0.2825,-0.2806,-0.2789,-0.2782,-0.2764,-0.2748,-0.274,-0.2736,-0.2726,-0.2734,-0.2728,-0.274,-0.2744,-0.2748,-0.2751,-0.2753,-0.2758,-0.2706,-0.2706,-0.2706,0,0,-0.292,-0.2899,-0.2897,-0.2875,-0.286,-0.2855,-0.2825,-0.2821,-0.2817,-0.2782,-0.278,-0.2765,-0.2746,-0.2749,-0.275,-0.2739,-0.2763,-0.2751,-0.2754,-0.2754,-0.2755,-0.276,-0.2764,-0.2707,-0.2707,-0.2707,0,0,-0.2957,-0.294,-0.2943,-0.2928,-0.2906,-0.2886,-0.2886,-0.2859,-0.2847,-0.2844,-0.2817,-0.2812,-0.2798,-0.2785,-0.2777,-0.2805,-0.2787,-0.2803,-0.2828,-0.283,-0.2834,-0.2838,-0.2848,-0.2852,-0.2805,-0.2805,-0.2805,0,-0.2988,-0.2978,-0.2948,-0.2945,-0.2935,-0.2901,-0.2904,-0.2891,-0.2868,-0.2862,-0.285,-0.283,-0.2815,-0.2814,-0.2821,-0.2815,-0.2815,-0.2807,-0.2836,-0.2839,-0.2842,-0.2852,-0.2855,-0.2807,-0.2807,-0.2807,-0.2807,0,-0.3017,-0.301,-0.3015,-0.2991,-0.2982,-0.2982,-0.2952,-0.2946,-0.2927,-0.2909,-0.2905,-0.2885,-0.287,-0.2868,-0.2851,-0.2864,-0.2858,-0.2841,-0.2821,-0.285,-0.2858,-0.2861,-0.281,-0.281,-0.2809,-0.2808,0,0,-0.3086,-0.3041,-0.3044,-0.3032,-0.3002,-0.2997,-0.2994,-0.2978,-0.2974,-0.2958,-0.2956,-0.2943,-0.2926,-0.2917,-0.2897,-0.2899,-0.2922,-0.2881,-0.288,-0.289,-0.2935,-0.2949,-0.2954,-0.2909,-0.2909,-0.291,-0.2937,0,-0.3119,-0.3112,-0.3083,-0.3085,-0.3078,-0.3043,-0.3041,-0.3023,-0.3004,-0.2996,-0.2976,-0.2967,-0.2946,-0.294,-0.294,-0.292,-0.2931,-0.2917,-0.2907,-0.2907,-0.2914,-0.2958,-0.2974,-0.3001,-0.294,-0.2941,-0.2941,0,-0.3158,-0.3141,-0.3142,-0.311,-0.3106,-0.3105,-0.3087,-0.3079,-0.3057,-0.3043,-0.3031,-0.3008,-0.3003,-0.2982,-0.2975,-0.2966,-0.296,-0.2949,-0.2949,-0.2949,-0.2927,-0.296,-0.3009,-0.3013,-0.2946,-0.2945,-0.2945,0,-0.3208,-0.3186,-0.3183,-0.3174,-0.3137,-0.3137,-0.3121,-0.3098,-0.309,-0.3073,-0.3067,-0.3052,-0.3044,-0.3032,-0.3005,-0.2992,-0.3001,-0.2978,-0.2991,-0.2991,-0.2996,-0.2997,-0.3046,-0.299,-0.299,-0.299,-0.299,0,-0.325,-0.3252,-0.3205,-0.3204,-0.3205,-0.317,-0.3172,-0.3154,-0.3133,-0.3127,-0.3096,-0.3091,-0.3055,-0.3047,-0.3026,-0.3023,-0.302,-0.3009,-0.3004,-0.3012,-0.3014,-0.301,-0.3008,-0.2991,-0.2991,-0.299,-0.299,0,-0.3308,-0.3277,-0.3272,-0.3235,-0.3226,-0.3228,-0.3198,-0.3195,-0.3173,-0.3166,-0.3162,-0.3129,-0.3116,-0.3087,-0.3068,-0.3054,-0.3057,-0.3047,-0.3065,-0.3061,-0.3075,-0.3075,-0.3125,-0.3129,-0.307,-0.307,-0.3071,0,-0.3337,-0.3338,-0.33,-0.3293,-0.3279,-0.3268,-0.3258,-0.3224,-0.3215,-0.3188,-0.3188,-0.3173,-0.3159,-0.3141,-0.3115,-0.31,-0.309,-0.3108,-0.3087,-0.3096,-0.3091,-0.3092,-0.3091,-0.3113,-0.3114,-0.3115,-0.3115,0,-0.3393,-0.3376,-0.3363,-0.3343,-0.3331,-0.3314,-0.3296,-0.3292,-0.3253,-0.3245,-0.323,-0.3219,-0.3198,-0.3183,-0.3163,-0.3148,-0.3126,-0.3121,-0.3123,-0.3134,-0.3144,-0.3139,-0.3078,-0.3121,-0.3121,-0.312,-0.312,-0.312,-0.3438,-0.3436,-0.3409,-0.3394,-0.3375,-0.3358,-0.3353,-0.3329,-0.3316,-0.3295,-0.3275,-0.3263,-0.3238,-0.3209,-0.3194,-0.3185,-0.3173,-0.3176,-0.3177,-0.3179,-0.3183,-0.3144,-0.3181,-0.3181,-0.318,-0.318,-0.318,0,-0.3493,-0.3472,-0.3458,-0.3432,-0.342,-0.3396,-0.3374,-0.3366,-0.3355,-0.3333,-0.3319,-0.3302,-0.3287,-0.3258,-0.324,-0.3238,-0.3227,-0.3235,-0.3236,-0.3232,-0.3194,-0.3194,-0.3244,-0.3244,-0.3244,-0.3244,-0.3244,-0.3244,-0.352,-0.3514,-0.3494,-0.3479,-0.3459,-0.3445,-0.3434,-0.3418,-0.34,-0.3382,-0.3368,-0.3348,-0.3324,-0.3303,-0.3288,-0.328,-0.3276,-0.3287,-0.3276,-0.3241,-0.3235,-0.3229,-0.323,-0.3286,-0.3286,-0.3315,-0.3315,-0.3315]},{"header":{"parameterUnit":"m.s-1","parameterCategory":1,"la1":30.2991,"la2":30.254,"lo1":-89.0895,"lo2":-89.0444,"dy":0.0017,"dx":0.0017,"nx":28,"ny":28,"refTime":"2024-08-04T09:00:00:Z","depth":0,"parameterNumber":3,"parameterNumberName":"V-component_of_WINDS"},"data":[0,0,0,0,0,0,0,0,0,0,0,0,0,0,0,0,0,0,0,0,0,0,0,0,0,0,0,0,0,0,0,0,0,0,0,0,0,0,0,0,0,0,0,0,0,0,0,0,0,0,0,0,0,0,0,0,0,0,-2.6093,-2.6094,0,-2.6198,-2.6199,-2.6201,-2.6201,-2.62,-2.6199,-2.6198,-2.6306,-2.631,-2.6314,0,0,0,0,0,0,0,0,0,0,0,0,0,-2.5893,-2.5896,-2.6093,-2.6094,-2.6095,-2.6198,-2.6199,-2.6201,-2.6202,-2.62,-2.6198,-2.6197,-2.6305,-2.6309,-2.6314,0,0,0,0,0,0,0,0,0,0,0,0,0,-2.5987,-2.5898,-2.6092,-2.6108,-2.6111,-2.6198,-2.6199,-2.6201,-2.6202,-2.62,-2.6198,-2.6196,-2.6303,-2.6309,-2.6315,-2.6394,0,0,-2.6334,-2.6337,0,0,0,0,0,0,0,0,-2.5982,-2.5994,-2.6104,-2.6107,-2.611,-2.6185,-2.6169,-2.6266,-2.6203,-2.6167,-2.6197,-2.6195,-2.6267,-2.6276,-2.63,-2.6399,-2.6404,-2.6335,-2.6338,-2.6341,-2.6343,0,0,0,0,0,0,0,-2.5975,-2.599,-2.6134,-2.6106,-2.6109,-2.611,-2.6121,-2.6187,-2.6227,-2.617,-2.6171,-2.6183,-2.6268,-2.6294,-2.6303,-2.6405,-2.6334,-2.634,-2.6344,-2.6346,-2.6574,-2.6576,0,0,0,0,0,0,-2.5965,-2.5984,-2.6131,-2.6138,-2.604,-2.6115,-2.6128,-2.6163,-2.6227,-2.6234,-2.6185,-2.6183,-2.6285,-2.6296,-2.6307,-2.6404,-2.6341,-2.6347,-2.635,-2.6572,-2.6575,-2.6577,0,0,0,0,0,0,-2.5961,-2.5978,-2.6127,-2.6061,-2.608,-2.6121,-2.616,-2.6166,-2.6192,-2.6237,-2.6245,-2.6204,-2.6284,-2.6298,-2.6372,-2.6407,-2.635,-2.6355,-2.6569,-2.6573,-2.6576,-2.6597,0,0,0,0,0,0,-2.5955,-2.5977,-2.6007,-2.6062,-2.6084,-2.619,-2.6162,-2.6169,-2.6203,-2.6201,-2.6257,-2.6265,-2.6283,-2.6363,-2.6378,-2.6415,-2.636,-2.6566,-2.6571,-2.6575,-2.6594,-2.6601,-2.6608,0,0,0,0,0,-2.5948,-2.6009,-2.6008,-2.6026,-2.6122,-2.6192,-2.6205,-2.6225,-2.6205,-2.6236,-2.6266,-2.6263,-2.6401,-2.6371,-2.6388,-2.6427,-2.6564,-2.6569,-2.6575,-2.6591,-2.66,-2.6607,0,0,0,0,0,0,-2.5957,-2.6016,-2.6017,-2.6097,-2.6139,-2.6192,-2.6232,-2.6233,-2.6283,-2.6279,-2.6302,-2.6315,-2.6389,-2.6415,-2.638,-2.6507,-2.648,-2.6489,-2.6487,-2.6496,-2.6502,-2.6494,-2.6365,0,0,0,0,0,-2.5968,-2.602,-2.6069,-2.6135,-2.6157,-2.6191,-2.6222,-2.6233,-2.6279,-2.6297,-2.6332,-2.6376,-2.6429,-2.6464,-2.6515,-2.6598,-2.661,-2.6633,-2.664,-2.6645,-2.6653,-2.6699,-2.671,-2.6594,-2.6594,-2.6594,0,0,-2.5992,-2.6031,-2.6062,-2.6138,-2.6172,-2.6226,-2.6206,-2.6263,-2.6303,-2.6306,-2.6378,-2.6405,-2.6456,-2.6535,-2.6571,-2.6559,-2.6687,-2.6652,-2.6656,-2.6661,-2.6705,-2.6716,-2.6726,-2.6598,-2.6597,-2.6597,0,0,-2.6063,-2.6097,-2.6156,-2.6191,-2.6244,-2.6266,-2.628,-2.6333,-2.6351,-2.6424,-2.6427,-2.6475,-2.6567,-2.6603,-2.6633,-2.6719,-2.6718,-2.6735,-2.6771,-2.6816,-2.6825,-2.6833,-2.6863,-2.6874,-2.6742,-2.6742,-2.6742,0,-2.6086,-2.6166,-2.6186,-2.6244,-2.6277,-2.6282,-2.6342,-2.6375,-2.6442,-2.6465,-2.6451,-2.6566,-2.6601,-2.6688,-2.6709,-2.6733,-2.6751,-2.6728,-2.6822,-2.683,-2.6838,-2.6868,-2.6879,-2.6744,-2.6744,-2.6744,-2.6743,0,-2.6192,-2.6248,-2.6289,-2.6354,-2.6392,-2.6451,-2.648,-2.6516,-2.6524,-2.6548,-2.6623,-2.6665,-2.6725,-2.6747,-2.6755,-2.6836,-2.6827,-2.6817,-2.6791,-2.685,-2.6878,-2.689,-2.6746,-2.6746,-2.6745,-2.6745,0,0,-2.6271,-2.6346,-2.6361,-2.639,-2.6449,-2.6493,-2.6552,-2.6611,-2.6642,-2.6688,-2.6738,-2.6816,-2.6807,-2.6842,-2.6855,-2.6894,-2.6959,-2.6879,-2.6881,-2.6893,-2.7051,-2.7058,-2.7071,-2.6959,-2.6962,-2.6963,-2.7047,0,-2.6348,-2.6453,-2.6473,-2.6564,-2.6616,-2.6622,-2.6674,-2.6715,-2.6739,-2.6788,-2.6814,-2.6869,-2.6853,-2.6874,-2.6913,-2.6943,-2.6991,-2.6937,-2.7007,-2.7009,-2.6994,-2.7085,-2.7093,-2.7169,-2.7058,-2.706,-2.7061,0,-2.6452,-2.6501,-2.6597,-2.6649,-2.6672,-2.6718,-2.6774,-2.682,-2.6867,-2.6882,-2.6921,-2.693,-2.6992,-2.6963,-2.7049,-2.7012,-2.7042,-2.7061,-2.7064,-2.7072,-2.7038,-2.7095,-2.7194,-2.7205,-2.7078,-2.7077,-2.7076,0,-2.65,-2.659,-2.6659,-2.6684,-2.6747,-2.6779,-2.6807,-2.6852,-2.6887,-2.6936,-2.6959,-2.7014,-2.7045,-2.7088,-2.7112,-2.7088,-2.7196,-2.7169,-2.7211,-2.721,-2.7233,-2.7231,-2.7338,-2.7252,-2.7252,-2.7252,-2.7251,0,-2.6584,-2.6643,-2.6682,-2.6724,-2.6791,-2.6813,-2.6879,-2.6906,-2.6947,-2.6995,-2.7003,-2.7049,-2.7077,-2.7127,-2.7146,-2.7215,-2.7229,-2.7242,-2.7247,-2.7242,-2.724,-2.7262,-2.7257,-2.7255,-2.7254,-2.7253,-2.7253,0,-2.6649,-2.6677,-2.6753,-2.6806,-2.6821,-2.6868,-2.6913,-2.6955,-2.6979,-2.7041,-2.7056,-2.7095,-2.7154,-2.7182,-2.7255,-2.7268,-2.7346,-2.7346,-2.7329,-2.7331,-2.7371,-2.7367,-2.7495,-2.7514,-2.7415,-2.7416,-2.7417,0,-2.67,-2.6746,-2.6804,-2.6837,-2.6865,-2.6918,-2.6953,-2.6978,-2.7014,-2.7072,-2.7107,-2.7167,-2.7215,-2.7309,-2.7344,-2.74,-2.7402,-2.7444,-2.7411,-2.7404,-2.7403,-2.74,-2.7405,-2.7449,-2.745,-2.7451,-2.7452,0,-2.6789,-2.6801,-2.6851,-2.6907,-2.6949,-2.6994,-2.7038,-2.7064,-2.7096,-2.7136,-2.7197,-2.7235,-2.7309,-2.7368,-2.7427,-2.7456,-2.7459,-2.7462,-2.7474,-2.747,-2.7458,-2.7465,-2.7345,-2.7459,-2.7458,-2.7457,-2.7457,-2.7457,-2.6849,-2.689,-2.6937,-2.6993,-2.7029,-2.707,-2.7112,-2.7142,-2.7193,-2.7255,-2.7267,-2.7331,-2.7378,-2.7457,-2.7488,-2.7539,-2.753,-2.7548,-2.7553,-2.7557,-2.7559,-2.745,-2.755,-2.755,-2.755,-2.755,-2.755,0,-2.6938,-2.6969,-2.702,-2.7082,-2.7126,-2.7126,-2.7175,-2.7212,-2.7268,-2.7312,-2.736,-2.7429,-2.7487,-2.7526,-2.7584,-2.7618,-2.7621,-2.7632,-2.763,-2.7637,-2.7564,-2.7547,-2.7629,-2.7629,-2.7629,-2.7629,-2.7629,-2.7629,-2.699,-2.7059,-2.7077,-2.7164,-2.7194,-2.7257,-2.7285,-2.7324,-2.7359,-2.7436,-2.7484,-2.7509,-2.7552,-2.7613,-2.7666,-2.7676,-2.7697,-2.7709,-2.7719,-2.765,-2.7642,-2.7634,-2.7618,-2.7713,-2.7713,-2.7787,-2.7788,-2.7789]}]]